Weather History for Crestview, FL

Change the Weather History Date:

Monday, November 19, 2012

  Actual Average Record
Temperature  
Mean Temperature 54 °F -  
Max Temperature 70 °F - - ()
Min Temperature 39 °F - - ()
Degree Days  
Heating Degree Days 10    
Growing Degree Days 4 (Base 50)    
Moisture  
Dew Point 44 °F    
Average Humidity 75    
Maximum Humidity 97    
Minimum Humidity 42    
Precipitation  
Precipitation 0.00 in - - ()
Sea Level Pressure  
Sea Level Pressure 30.23 in    
Wind  
Wind Speed 3 mph (NNW)    
Max Wind Speed 10 mph    
Max Gust Speed -    
Visibility 10 miles    
Events      
T = Trace of Precipitation, MM = Missing Value Source: NWS Daily Summary

Daily Weather History Graph

Daily Weather History Graph

Search for Another Location

Airport:

Trip Planner

Search our weather history database for the weather conditions in past years. The results will help you decide how hot, cold, wet, or windy it might be!

Date:

Astronomy

Nov. 19, 2012 Rise Set
Actual Time 6:16 AM CST 4:46 PM CST
Civil Twilight 5:50 AM CST 5:12 PM CST
Nautical Twilight 5:21 AM CST 5:41 PM CST
Astronomical Twilight 4:52 AM CST 6:10 PM CST
Moon 11:27 AM CST (11/19) 11:02 PM CST (11/19)
Length of Visible Light 11h 22m
Length of Day
10h 30m
Waxing Crescent, 41% of the Moon is Illuminated
Nov 19
Waxing Crescent
Nov 20
First Quarter
Nov 28
Full
Dec 6
Last Quarter
Dec 13
New

Hourly Weather History & Observations

Time (CST) Temp. Windchill Dew Point Humidity Pressure Visibility Wind Dir Wind Speed Gust Speed Precip Events Conditions
12:55 AM 44.2 °F 42.7 °F 41.4 °F 90% 30.27 in 10.0 mi NNE 3.5 mph - N/A   Clear
1:55 AM 43.2 °F 41.5 °F 39.7 °F 88% 30.27 in 10.0 mi NNW 3.5 mph - N/A   Clear
2:55 AM 42.1 °F - 39.9 °F 92% 30.26 in 10.0 mi Calm Calm - N/A   Clear
3:55 AM 41.5 °F - 40.3 °F 95% 30.26 in 10.0 mi Calm Calm - N/A   Clear
4:55 AM 41.5 °F - 39.6 °F 93% 30.26 in 10.0 mi Calm Calm - N/A   Partly Cloudy
5:55 AM 39.2 °F - 37.8 °F 95% 30.26 in 10.0 mi Calm Calm - N/A   Clear
6:55 AM 41.0 °F 39.0 °F 40.1 °F 97% 30.27 in 10.0 mi NNW 3.5 mph - N/A   Clear
7:55 AM 49.5 °F - 44.6 °F 83% 30.28 in 10.0 mi North 3.5 mph - N/A   Clear
8:55 AM 56.5 °F - 46.2 °F 68% 30.27 in 10.0 mi NNE 4.6 mph - N/A   Scattered Clouds
9:55 AM 63.1 °F - 48.9 °F 60% 30.27 in 10.0 mi Variable 4.6 mph - N/A   Mostly Cloudy
10:55 AM 66.7 °F - 49.5 °F 54% 30.26 in 10.0 mi North 6.9 mph - N/A   Mostly Cloudy
11:55 AM 68.2 °F - 49.3 °F 51% 30.24 in 10.0 mi Variable 5.8 mph - N/A   Mostly Cloudy
12:55 PM 70.7 °F - 47.8 °F 44% 30.20 in 10.0 mi North 5.8 mph - N/A   Scattered Clouds
1:55 PM 70.3 °F - 47.3 °F 44% 30.19 in 10.0 mi NW 5.8 mph - N/A   Scattered Clouds
2:55 PM 70.3 °F - 46.4 °F 42% 30.18 in 10.0 mi NNW 10.4 mph - N/A   Partly Cloudy
3:55 PM 68.0 °F - 46.8 °F 47% 30.18 in 10.0 mi NNW 9.2 mph - N/A   Partly Cloudy
4:55 PM 61.7 °F - 45.7 °F 56% 30.17 in 10.0 mi North 3.5 mph - N/A   Partly Cloudy
5:55 PM 54.5 °F - 45.1 °F 71% 30.18 in 10.0 mi Calm Calm - N/A   Partly Cloudy
6:55 PM 49.5 °F - 44.1 °F 82% 30.21 in 10.0 mi Calm Calm - N/A   Clear
7:55 PM 47.1 °F - 43.7 °F 88% 30.20 in 10.0 mi Calm Calm - N/A   Clear
8:55 PM 45.3 °F 44.0 °F 42.3 °F 89% 30.20 in 10.0 mi NNW 3.5 mph - N/A   Clear
9:55 PM 42.8 °F - 40.6 °F 92% 30.21 in 10.0 mi Calm Calm - N/A   Clear
10:55 PM 42.4 °F - 40.5 °F 93% 30.18 in 10.0 mi Calm Calm - N/A   Clear
11:55 PM 42.1 °F - 41.0 °F 96% 30.19 in 10.0 mi Calm Calm - N/A   Clear